Location: *
(48.8667°N, 2.3331°E)
Time: 17:46:39
(UTC+00:00)

CZ-2C R/B - Pass Details

Date: 09 April 2020
Orbit: 785 x 870 km, 98.3° (Epoch: 29 May)

Event Time Altitude Azimuth Distance (km) Brightness Sun altitude
Rises 20:56:50 0° 9° (N) 3,290 6.2 -21.4°
Reaches altitude 10° 20:59:13 10° 4° (N) 2,357 5.5 -21.7°
Maximum altitude 21:04:10 47° 292° (WNW) 1,046 3.5 -22.3°
Drops below altitude 10° 21:09:07 10° 220° (SW) 2,360 5.0 -22.9°
Sets 21:11:31 0° 214° (SW) 3,294 5.7 -23.2°
